DW9425 Weather Reports


Display with metric or nautical units.
time (UTC)temp
F
wind
direction
speed
MPH
gust
MPH
rain 1hr
in
rain 24hr
in
rain mn
in
humidity
%
barometer
mb
20260505041528 60 336 1.0 3.0 0.00 0.00 0.00 28 1012.8
20260505040027 60 336 3.0 9.0 0.00 0.00 0.00 28 1012.9
20260505034526 61 294 1.0 9.0 0.00 0.00 0.00 27 1012.8
20260505033028 61 302 1.0 6.0 0.00 0.00 0.00 26 1012.7
20260505031524 61 315 3.0 8.0 0.00 0.00 0.00 25 1012.5
20260505030023 62 290 1.0 5.0 0.00 0.00 0.00 24 1012.3
20260505024522 63 292 3.0 13.0 0.00 0.00 0.00 23 1012.2
20260505023022 63 302 8.0 14.0 0.00 0.00 0.00 22 1012.1
20260505021522 64 298 8.0 15.0 0.00 0.00 0.00 21 1012.0
20260505020021 64 279 11.0 21.0 0.00 0.00 0.00 20 1011.9
20260505014520 65 281 7.0 17.0 0.00 0.00 0.00 19 1011.9
20260505013018 65 302 9.0 17.0 0.00 0.00 0.00 18 1011.6
20260505011518 66 284 9.0 19.0 0.00 0.00 0.00 17 1011.5
20260505010018 67 298 7.0 20.0 0.00 0.00 0.00 17 1011.5
20260505004515 67 280 10.0 24.0 0.00 0.00 0.00 16 1011.7
20260505003021 68 244 15.0 25.0 0.00 0.00 0.00 15 1011.8
20260505001514 68 249 6.0 19.0 0.00 0.00 0.00 16 1011.6
20260505000013 68 273 9.0 19.0 0.00 0.00 0.00 16 1011.9
20260504234511 69 283 10.0 18.0 0.00 0.00 0.00 16 1011.9
20260504233011 69 280 7.0 16.0 0.00 0.00 0.00 17 1011.9
20260504231510 71 250 7.0 20.0 0.00 0.00 0.00 17 1011.9
20260504230008 71 251 6.0 19.0 0.00 0.00 0.00 17 1012.0
20260504224506 71 257 9.0 18.0 0.00 0.00 0.00 16 1012.3
20260504223005 71 252 6.0 20.0 0.00 0.00 0.00 17 1012.4
20260504221504 71 248 6.0 22.0 0.00 0.00 0.00 17 1012.5
20260504220002 71 277 8.0 22.0 0.00 0.00 0.00 16 1012.8
20260504214700 71 243 8.0 21.0 0.00 0.00 0.00 16 1012.9
20260504213059 71 267 8.0 17.0 0.00 0.00 0.00 15 1012.9
20260504211557 70 286 14.0 23.0 0.00 0.00 0.00 15 1013.1
20260504210107 71 314 11.0 26.0 0.00 0.00 0.00 14 1013.5
20260504204652 71 282 12.0 21.0 0.00 0.00 0.00 16 1013.8
20260504203104 71 269 11.0 20.0 0.00 0.00 0.00 15 1014.0
20260504201548 70 236 13.0 25.0 0.00 0.00 0.00 16 1014.1
20260504200047 70 217 9.0 19.0 0.00 0.00 0.00 16 1014.1
20260504194544 69 222 10.0 23.0 0.00 0.00 0.00 17 1014.2
20260504193042 69 247 12.0 24.0 0.00 0.00 0.00 17 1014.5
20260504191543 69 225 14.0 22.0 0.00 0.00 0.00 18 1014.5
20260504190100 68 243 11.0 25.0 0.00 0.00 0.00 19 1014.5
20260504184537 68 266 14.0 25.0 0.00 0.00 0.00 20 1014.7
20260504183035 67 295 9.0 26.0 0.00 0.00 0.00 22 1014.8
20260504181534 67 256 15.0 23.0 0.00 0.00 0.00 22 1015.0
20260504180032 67 256 13.0 20.0 0.00 0.00 0.00 21 1015.1
20260504174528 67 278 11.0 19.0 0.00 0.00 0.00 22 1015.3
20260504173026 66 271 10.0 18.0 0.00 0.00 0.00 23 1015.3
20260504171524 66 217 7.0 12.0 0.00 0.00 0.00 28 1015.3
20260504081558 52 234 1.0 3.0 0.00 0.00 0.00 58 1015.7
20260504044534 55 257 1.0 7.0 0.00 0.00 0.00 49 1016.3